Abilene, TX

7:08 PM CDT on May 22, 2017 (GMT -0500)
Abilene Regional

Weather History for KABI - August, 2014

Change the Weather History Date:

Monday, August 4, 2014

  Actual Average Record
Temperature  
Mean Temperature 82 °F 84 °F  
Max Temperature 94 °F 95 °F 107 °F (1943)
Min Temperature 69 °F 73 °F 62 °F (1975)
Degree Days  
Heating Degree Days 0 0  
Month to date heating degree days 0 0  
Since 1 June heating degree days 0 1  
Since 1 July heating degree days 0 0  
Cooling Degree Days 17 19  
Month to date cooling degree days 56 76  
Year to date cooling degree days 1618 1469  
Since 1 June cooling degree days 1104 1072  
Growing Degree Days 31 (Base 50)    
Moisture  
Dew Point 60 °F    
Average Humidity 55    
Maximum Humidity 84    
Minimum Humidity 26    
Precipitation  
Precipitation 0.00 in 0.08 in 1.14 in (1955)
Month to date precipitation 0.00 0.30  
Year to date precipitation 10.20 14.67  
Sea Level Pressure  
Sea Level Pressure 30.01 in    
Wind  
Wind Speed 5 mph (SE)    
Max Wind Speed 14 mph    
Max Gust Speed 17 mph    
Visibility 10 miles    
Events      
T = Trace of Precipitation, MM = Missing Value Source: NWS Daily Summary

Daily Weather History Graph

Daily Weather History Graph

Search for Another Location

Airport or City:

Trip Planner

Search our weather history database for the weather conditions in past years. The results will help you decide how hot, cold, wet, or windy it might be!

Date:

Astronomy

Aug. 04, 2014 Rise Set
Actual Time 6:55 AM CDT 8:33 PM CDT
Civil Twilight 6:28 AM CDT 9:00 PM CDT
Nautical Twilight 5:56 AM CDT 9:32 PM CDT
Astronomical Twilight 5:23 AM CDT 10:05 PM CDT
Moon 2:48 PM CDT (8/4) 1:00 AM CDT (8/4)
Length of Visible Light 14h 31m
Length of Day
13h 38m
First Quarter, 57% of the Moon is Illuminated
Aug 4
First Quarter
Aug 10
Full
Aug 17
Last Quarter
Aug 25
New
Sep 2
First Quarter

Hourly Weather History & Observations

Time (CDT) Temp. Heat Index Dew Point Humidity Pressure Visibility Wind Dir Wind Speed Gust Speed Precip Events Conditions
1:52 AM 75.0 °F - 60.1 °F 60% 30.04 in 10.0 mi ESE 6.9 mph - N/A   Clear
2:52 AM 73.9 °F - 61.0 °F 64% 30.03 in 10.0 mi ESE 9.2 mph - N/A   Clear
5:52 AM 70.0 °F - 64.0 °F 81% 30.03 in 9.0 mi SSE 4.6 mph - N/A   Clear
6:52 AM 69.1 °F - 64.0 °F 84% 30.05 in 9.0 mi South 4.6 mph - N/A   Clear
7:52 AM 71.1 °F - 64.0 °F 78% 30.06 in 7.0 mi Calm Calm - N/A   Clear
8:52 AM 75.0 °F - 66.0 °F 73% 30.07 in 8.0 mi SE 5.8 mph - N/A   Clear
9:52 AM 78.1 °F - 66.9 °F 68% 30.07 in 9.0 mi South 3.5 mph - N/A   Clear
10:52 AM 81.0 °F 82.5 °F 64.0 °F 56% 30.07 in 10.0 mi Variable 4.6 mph - N/A   Clear
11:52 AM 87.1 °F 87.0 °F 61.0 °F 41% 30.06 in 10.0 mi Variable 3.5 mph - N/A   Scattered Clouds
12:52 PM 87.1 °F 85.9 °F 57.0 °F 36% 30.04 in 10.0 mi South 3.5 mph - N/A   Mostly Cloudy
1:52 PM 90.0 °F 88.1 °F 55.9 °F 31% 30.01 in 10.0 mi Calm Calm - N/A   Partly Cloudy
2:52 PM 91.0 °F 88.7 °F 54.0 °F 28% 29.99 in 10.0 mi Variable 3.5 mph - N/A   Scattered Clouds
4:52 PM 91.9 °F 89.5 °F 53.1 °F 27% 29.95 in 10.0 mi Calm Calm - N/A   Scattered Clouds
5:52 PM 93.0 °F 90.8 °F 54.0 °F 27% 29.94 in 10.0 mi SSE 6.9 mph - N/A   Clear
6:52 PM 91.0 °F 88.9 °F 55.0 °F 29% 29.93 in 10.0 mi SSE 4.6 mph - N/A   Clear
7:52 PM 91.0 °F 89.2 °F 55.9 °F 30% 29.94 in 10.0 mi East 8.1 mph - N/A   Clear
8:52 PM 88.0 °F 86.9 °F 57.9 °F 36% 29.95 in 10.0 mi East 8.1 mph - N/A   Clear
9:52 PM 84.0 °F 84.0 °F 60.1 °F 44% 29.97 in 10.0 mi ESE 5.8 mph - N/A   Clear
10:52 PM 82.9 °F 83.2 °F 60.1 °F 46% 30.00 in 10.0 mi ESE 10.4 mph - N/A   Scattered Clouds
11:52 PM 81.0 °F 81.9 °F 62.1 °F 52% 30.01 in 10.0 mi SE 10.4 mph - N/A   Clear